[[{"header":{"parameterUnit":"m.s-1","parameterCategory":1,"la1":30.2991,"la2":30.254,"lo1":-89.0895,"lo2":-89.0444,"dy":0.0017,"dx":0.0017,"nx":28,"ny":28,"refTime":"2024-05-16T09:00:00:Z","depth":0,"parameterNumber":2,"parameterNumberName":"U-component_of_WINDS"},"data":[0,0,0,0,0,0,0,0,0,0,0,0,0,0,0,0,0,0,0,0,0,0,0,0,0,0,0,0,0,0,0,0,0,0,0,0,0,0,0,0,0,0,0,0,0,0,0,0,0,0,0,0,0,0,0,0,0,0,-3.3585,-3.3585,0,-3.3607,-3.3607,-3.3608,-3.3557,-3.3555,-3.3554,-3.3552,-3.3575,-3.3577,-3.3579,0,0,0,0,0,0,0,0,0,0,0,0,0,-3.35,-3.3502,-3.3585,-3.3585,-3.3586,-3.3607,-3.3607,-3.3608,-3.3557,-3.3555,-3.3553,-3.3551,-3.3574,-3.3576,-3.3579,0,0,0,0,0,0,0,0,0,0,0,0,0,-3.3531,-3.3503,-3.3585,-3.3563,-3.3561,-3.3607,-3.3607,-3.3608,-3.3558,-3.3555,-3.3553,-3.355,-3.3573,-3.3576,-3.3579,-3.3647,0,0,-3.3589,-3.359,0,0,0,0,0,0,0,0,-3.353,-3.3534,-3.3566,-3.3565,-3.3563,-3.3577,-3.3586,-3.3621,-3.3558,-3.3559,-3.3552,-3.3549,-3.3577,-3.358,-3.3589,-3.3649,-3.3649,-3.3589,-3.3591,-3.3593,-3.3593,0,0,0,0,0,0,0,-3.3527,-3.3533,-3.3594,-3.3566,-3.3564,-3.3552,-3.3554,-3.3592,-3.3581,-3.3559,-3.3555,-3.3558,-3.3576,-3.3587,-3.359,-3.365,-3.3589,-3.3592,-3.3594,-3.3595,-3.3766,-3.3769,0,0,0,0,0,0,-3.3528,-3.3532,-3.3593,-3.3594,-3.354,-3.3556,-3.3558,-3.3575,-3.3581,-3.358,-3.356,-3.3556,-3.3582,-3.3586,-3.359,-3.367,-3.3593,-3.3596,-3.3597,-3.3764,-3.3767,-3.377,0,0,0,0,0,0,-3.3526,-3.3534,-3.3592,-3.3562,-3.3569,-3.356,-3.3579,-3.3576,-3.3587,-3.3582,-3.358,-3.3573,-3.3581,-3.3586,-3.3634,-3.367,-3.3597,-3.36,-3.376,-3.3765,-3.3768,-3.383,0,0,0,0,0,0,-3.3524,-3.3534,-3.3559,-3.3563,-3.357,-3.3635,-3.3582,-3.3579,-3.3592,-3.3587,-3.3593,-3.3592,-3.3579,-3.3629,-3.3637,-3.3673,-3.3602,-3.3757,-3.3762,-3.3767,-3.3824,-3.3835,-3.3844,0,0,0,0,0,-3.3521,-3.3576,-3.3561,-3.3568,-3.3602,-3.3637,-3.3641,-3.3625,-3.3596,-3.3621,-3.3618,-3.3592,-3.3665,-3.3635,-3.3643,-3.368,-3.3755,-3.3761,-3.3767,-3.382,-3.3833,-3.3844,0,0,0,0,0,0,-3.3576,-3.3576,-3.3559,-3.3616,-3.3627,-3.3628,-3.366,-3.364,-3.3659,-3.3653,-3.3632,-3.3634,-3.3686,-3.3688,-3.3654,-3.3747,-3.3705,-3.3713,-3.3743,-3.3755,-3.3765,-3.3762,-3.3605,0,0,0,0,0,-3.3594,-3.3623,-3.3621,-3.3672,-3.3678,-3.3669,-3.3683,-3.367,-3.368,-3.3685,-3.3685,-3.3697,-3.3722,-3.3739,-3.3762,-3.3825,-3.3826,-3.3855,-3.3866,-3.3874,-3.388,-3.3913,-3.3926,-3.3789,-3.3789,-3.3789,0,0,-3.3633,-3.3637,-3.3656,-3.3683,-3.369,-3.372,-3.3673,-3.3706,-3.3728,-3.369,-3.3734,-3.3736,-3.3747,-3.3803,-3.3827,-3.3806,-3.3919,-3.3881,-3.3888,-3.389,-3.3921,-3.3934,-3.3945,-3.3793,-3.3792,-3.3792,0,0,-3.3718,-3.3724,-3.3767,-3.3775,-3.3786,-3.3779,-3.379,-3.3795,-3.3794,-3.3839,-3.3811,-3.3838,-3.3882,-3.3891,-3.3902,-3.3993,-3.3969,-3.4001,-3.4053,-3.4086,-3.4096,-3.4106,-3.4137,-3.4149,-3.4008,-3.4008,-3.4008,0,-3.3764,-3.3808,-3.3791,-3.3827,-3.3839,-3.3807,-3.385,-3.3859,-3.3877,-3.3887,-3.3864,-3.3919,-3.3924,-3.3981,-3.4004,-3.4014,-3.4025,-3.3999,-3.4096,-3.4105,-3.4114,-3.4144,-3.4156,-3.4012,-3.4011,-3.4011,-3.4011,0,-3.3864,-3.3895,-3.3928,-3.3947,-3.3964,-3.4003,-3.3992,-3.4011,-3.3997,-3.3994,-3.404,-3.4046,-3.407,-3.4083,-3.407,-3.4138,-3.4125,-3.41,-3.4057,-3.4131,-3.4158,-3.417,-3.4017,-3.4016,-3.4015,-3.4014,0,0,-3.3982,-3.3991,-3.4004,-3.4012,-3.4023,-3.4046,-3.4085,-3.4108,-3.4125,-3.414,-3.417,-3.421,-3.4187,-3.4199,-3.4187,-3.4216,-3.4286,-3.4186,-3.4186,-3.4203,-3.4362,-3.4379,-3.4393,-3.4272,-3.4274,-3.4276,-3.436,0,-3.4065,-3.4129,-3.4116,-3.418,-3.4208,-3.4179,-3.4212,-3.4223,-3.4221,-3.4245,-3.4243,-3.4271,-3.4239,-3.4246,-3.4273,-3.4272,-3.4317,-3.4266,-3.43,-3.4301,-3.4295,-3.4407,-3.4426,-3.4505,-3.4371,-3.4373,-3.4374,0,-3.4169,-3.4188,-3.4254,-3.4261,-3.4273,-3.4303,-3.4323,-3.4347,-3.4359,-3.4356,-3.437,-3.4353,-3.4391,-3.435,-3.4403,-3.4368,-3.4382,-3.4384,-3.4386,-3.4387,-3.434,-3.4409,-3.453,-3.4541,-3.4391,-3.439,-3.4389,0,-3.4247,-3.4289,-3.4333,-3.4342,-3.4351,-3.4373,-3.4378,-3.4387,-3.4403,-3.4421,-3.4431,-3.4454,-3.4466,-3.4485,-3.4475,-3.4446,-3.4529,-3.4487,-3.4526,-3.4527,-3.4543,-3.4542,-3.4666,-3.4556,-3.4556,-3.4555,-3.4555,0,-3.4339,-3.4381,-3.4368,-3.4396,-3.4442,-3.4427,-3.4473,-3.4474,-3.4483,-3.4511,-3.4488,-3.4515,-3.45,-3.4526,-3.4519,-3.4563,-3.4569,-3.4567,-3.4564,-3.4568,-3.4568,-3.4575,-3.4568,-3.4558,-3.4558,-3.4557,-3.4557,0,-3.4432,-3.4425,-3.4472,-3.4478,-3.448,-3.4514,-3.4519,-3.4545,-3.4542,-3.4577,-3.4585,-3.4581,-3.461,-3.4602,-3.4634,-3.4629,-3.4684,-3.4675,-3.468,-3.4677,-3.4716,-3.4712,-3.4847,-3.4864,-3.4745,-3.4746,-3.4747,0,-3.4491,-3.4522,-3.4531,-3.4548,-3.4555,-3.4582,-3.4597,-3.4585,-3.4602,-3.4619,-3.4643,-3.467,-3.469,-3.4739,-3.4738,-3.4763,-3.4753,-3.4799,-3.4757,-3.4759,-3.4752,-3.4749,-3.4752,-3.4807,-3.4808,-3.4809,-3.481,0,-3.4595,-3.4591,-3.4613,-3.4636,-3.4655,-3.4672,-3.4687,-3.4702,-3.469,-3.4711,-3.474,-3.4757,-3.479,-3.4817,-3.4839,-3.4845,-3.4826,-3.4824,-3.4834,-3.4837,-3.4838,-3.4836,-3.4701,-3.482,-3.4819,-3.4819,-3.4818,-3.4818,-3.4671,-3.4698,-3.4708,-3.4735,-3.4745,-3.476,-3.4784,-3.4785,-3.4809,-3.4834,-3.4826,-3.4859,-3.4872,-3.49,-3.4909,-3.4935,-3.4918,-3.4933,-3.4936,-3.4939,-3.4944,-3.4836,-3.4939,-3.4939,-3.4939,-3.4939,-3.4938,0,-3.4773,-3.4779,-3.4804,-3.4825,-3.4846,-3.4827,-3.4843,-3.4862,-3.4892,-3.4905,-3.4926,-3.496,-3.4987,-3.4989,-3.5015,-3.5035,-3.5027,-3.5042,-3.5039,-3.5041,-3.4958,-3.4946,-3.5048,-3.5048,-3.5048,-3.5048,-3.5048,-3.5048,-3.4829,-3.4872,-3.4869,-3.4917,-3.4923,-3.4955,-3.4965,-3.4979,-3.4989,-3.5028,-3.505,-3.5052,-3.5061,-3.5087,-3.5111,-3.5111,-3.512,-3.5139,-3.5135,-3.5058,-3.5047,-3.5036,-3.5025,-3.5141,-3.5141,-3.5215,-3.5216,-3.5217]},{"header":{"parameterUnit":"m.s-1","parameterCategory":1,"la1":30.2991,"la2":30.254,"lo1":-89.0895,"lo2":-89.0444,"dy":0.0017,"dx":0.0017,"nx":28,"ny":28,"refTime":"2024-05-16T09:00:00:Z","depth":0,"parameterNumber":3,"parameterNumberName":"V-component_of_WINDS"},"data":[0,0,0,0,0,0,0,0,0,0,0,0,0,0,0,0,0,0,0,0,0,0,0,0,0,0,0,0,0,0,0,0,0,0,0,0,0,0,0,0,0,0,0,0,0,0,0,0,0,0,0,0,0,0,0,0,0,0,3.3324,3.3324,0,3.3395,3.3395,3.3396,3.3417,3.3416,3.3416,3.3416,3.3484,3.3486,3.3488,0,0,0,0,0,0,0,0,0,0,0,0,0,3.3202,3.3204,3.3323,3.3324,3.3325,3.3394,3.3395,3.3396,3.3417,3.3416,3.3416,3.3416,3.3483,3.3485,3.3488,0,0,0,0,0,0,0,0,0,0,0,0,0,3.3262,3.3205,3.3323,3.3344,3.3347,3.3394,3.3395,3.3397,3.3417,3.3416,3.3416,3.3415,3.3482,3.3485,3.3488,3.3519,0,0,3.3498,3.35,0,0,0,0,0,0,0,0,3.3259,3.3267,3.334,3.3343,3.3346,3.3396,3.3378,3.3437,3.3417,3.339,3.3416,3.3415,3.3455,3.346,3.3475,3.3522,3.3525,3.3499,3.35,3.3502,3.3503,0,0,0,0,0,0,0,3.3255,3.3264,3.3351,3.3341,3.3344,3.3349,3.3356,3.3389,3.3424,3.3392,3.3394,3.3402,3.3456,3.3471,3.3476,3.3526,3.3498,3.3501,3.3503,3.3505,3.3604,3.3605,0,0,0,0,0,0,3.3247,3.326,3.3349,3.3354,3.33,3.3351,3.336,3.338,3.3424,3.343,3.3403,3.3403,3.3466,3.3472,3.3479,3.3519,3.3502,3.3505,3.3507,3.3603,3.3604,3.3605,0,0,0,0,0,0,3.3245,3.3255,3.3346,3.3307,3.3319,3.3354,3.3377,3.3382,3.3398,3.3432,3.3438,3.3412,3.3466,3.3474,3.351,3.3521,3.3506,3.3509,3.3603,3.3604,3.3605,3.3598,0,0,0,0,0,0,3.3241,3.3254,3.3267,3.3308,3.3321,3.3377,3.3377,3.3384,3.3404,3.3405,3.3442,3.3448,3.3466,3.3505,3.3513,3.3525,3.3512,3.3602,3.3603,3.3604,3.3597,3.3598,3.36,0,0,0,0,0,3.3237,3.3261,3.3267,3.3278,3.3338,3.3378,3.3385,3.3407,3.3404,3.3417,3.344,3.3447,3.3519,3.3508,3.3517,3.3531,3.3601,3.3603,3.3604,3.3596,3.3598,3.36,0,0,0,0,0,0,3.3218,3.3266,3.3274,3.3312,3.3341,3.3381,3.3398,3.3408,3.3436,3.3436,3.346,3.3469,3.3502,3.352,3.3508,3.3564,3.356,3.3563,3.3551,3.3553,3.3554,3.3549,3.3514,0,0,0,0,0,3.3219,3.3249,3.3288,3.3318,3.3332,3.3363,3.338,3.3395,3.3425,3.3437,3.3461,3.3489,3.3518,3.3536,3.3565,3.36,3.3608,3.3614,3.3615,3.3616,3.3619,3.3639,3.3642,3.361,3.361,3.361,0,0,3.322,3.325,3.3267,3.3315,3.3339,3.3368,3.3372,3.3402,3.3424,3.3441,3.3476,3.3496,3.3528,3.3564,3.3581,3.358,3.363,3.3618,3.3618,3.3621,3.3641,3.3644,3.3647,3.3611,3.3611,3.3611,0,0,3.3237,3.3263,3.3291,3.3316,3.3353,3.3373,3.338,3.3419,3.3433,3.347,3.3483,3.3508,3.3557,3.358,3.3598,3.3626,3.3634,3.3634,3.3641,3.366,3.3663,3.3665,3.3676,3.3679,3.3637,3.3637,3.3637,0,3.3234,3.3279,3.3304,3.3334,3.3355,3.3374,3.3402,3.3424,3.3467,3.3481,3.348,3.3543,3.3566,3.3608,3.3615,3.3629,3.3637,3.363,3.3661,3.3664,3.3666,3.3676,3.368,3.3637,3.3637,3.3637,3.3637,0,3.3273,3.3305,3.3323,3.3367,3.339,3.3419,3.3447,3.3467,3.348,3.35,3.3537,3.3566,3.3601,3.3612,3.3623,3.3655,3.3654,3.3656,3.3653,3.3669,3.3678,3.3682,3.3636,3.3636,3.3636,3.3636,0,0,3.328,3.3339,3.3345,3.3366,3.3408,3.3432,3.3462,3.3499,3.3515,3.3545,3.357,3.3612,3.3616,3.3636,3.3651,3.3668,3.3689,3.3669,3.367,3.3672,3.3727,3.3725,3.3729,3.3695,3.3696,3.3696,3.3724,0,3.3302,3.3358,3.3382,3.3427,3.3456,3.3475,3.3501,3.3529,3.3549,3.3576,3.3598,3.3627,3.3629,3.3642,3.366,3.3683,3.37,3.3681,3.3718,3.3719,3.3709,3.3734,3.3731,3.3756,3.3728,3.3729,3.3729,0,3.3336,3.3369,3.3417,3.3457,3.3471,3.3494,3.353,3.3555,3.3588,3.3601,3.3625,3.3639,3.3671,3.3666,3.3709,3.3696,3.3712,3.3726,3.3727,3.3731,3.3725,3.3738,3.3764,3.3768,3.3735,3.3735,3.3734,0,3.3337,3.3392,3.3429,3.3445,3.3494,3.351,3.353,3.3563,3.3583,3.3614,3.3628,3.3661,3.3679,3.3704,3.3726,3.3721,3.3768,3.3764,3.3779,3.3778,3.3788,3.3787,3.3817,3.3798,3.3798,3.3798,3.3798,0,3.336,3.3389,3.343,3.3452,3.3485,3.3511,3.3543,3.3564,3.3593,3.3619,3.3637,3.3661,3.3689,3.3716,3.3734,3.3768,3.3775,3.3786,3.3791,3.3785,3.3784,3.3796,3.3795,3.3799,3.3799,3.3799,3.3799,0,3.3366,3.3395,3.3436,3.3479,3.349,3.3512,3.3549,3.3571,3.3592,3.3625,3.3634,3.3667,3.37,3.3726,3.3768,3.378,3.3815,3.382,3.3805,3.3807,3.3821,3.3819,3.3859,3.3866,3.3843,3.3843,3.3843,0,3.3379,3.3402,3.3448,3.3468,3.3489,3.352,3.3542,3.3569,3.3591,3.3631,3.3648,3.3683,3.3712,3.3764,3.3791,3.3824,3.3829,3.3841,3.3834,3.3828,3.383,3.3828,3.3831,3.3842,3.3842,3.3842,3.3842,0,3.3399,3.3413,3.3444,3.3481,3.3508,3.3538,3.3568,3.3582,3.3615,3.3638,3.3674,3.3697,3.3741,3.3775,3.3811,3.3831,3.3842,3.3845,3.385,3.3844,3.3835,3.384,3.3808,3.3843,3.3843,3.3843,3.3843,3.3843,3.3409,3.3431,3.3468,3.3502,3.3529,3.3557,3.358,3.3605,3.3636,3.3675,3.3689,3.3726,3.3758,3.3808,3.3828,3.3856,3.3856,3.3864,3.3866,3.3867,3.3867,3.383,3.3863,3.3863,3.3863,3.3863,3.3863,0,3.3431,3.3456,3.3488,3.3531,3.3558,3.3568,3.3602,3.3624,3.3657,3.3687,3.3716,3.3757,3.3791,3.3821,3.3856,3.3872,3.3878,3.3881,3.388,3.3884,3.3864,3.3857,3.3875,3.3875,3.3875,3.3875,3.3875,3.3875,3.3445,3.3483,3.3501,3.3551,3.3576,3.3613,3.3632,3.3658,3.3682,3.3728,3.3757,3.3777,3.3807,3.3845,3.3876,3.3884,3.3896,3.3897,3.3906,3.3887,3.3885,3.3884,3.3877,3.3899,3.3899,3.3923,3.3924,3.3924]}]]